Horseshoe Bay, TX

3:18 AM MDT on May 30, 2017 (GMT -0600)
Horseshoe Bay

Weather History for KDZB - August, 2014

Change the Weather History Date:

Tuesday, August 26, 2014

  Actual Average (KBMQ) Record (KBMQ)
Temperature  
Mean Temperature 86 °F -  
Max Temperature 98 °F 90 °F 102 °F (2011)
Min Temperature 74 °F 70 °F 66 °F (1997)
Cooling Degree Days 21    
Growing Degree Days 36 (Base 50)    
Moisture  
Dew Point 65 °F    
Average Humidity 57    
Maximum Humidity 87    
Minimum Humidity 29    
Precipitation  
Precipitation 0.61 in - - ()
Sea Level Pressure  
Sea Level Pressure 30.00 in    
Wind  
Wind Speed 3 mph (ESE)    
Max Wind Speed 14 mph    
Max Gust Speed 33 mph    
Visibility 10 miles    
Events Rain , Thunderstorm    
Averages and records for this station are not official NWS values.
T = Trace of Precipitation, MM = Missing Value Source: NWS Daily Summary

Daily Weather History Graph

Daily Weather History Graph

Search for Another Location

Airport or City:

Trip Planner

Search our weather history database for the weather conditions in past years. The results will help you decide how hot, cold, wet, or windy it might be!

Date:

Astronomy

Aug. 26, 2014 Rise Set
Actual Time 6:06 AM MDT 7:03 PM MDT
Civil Twilight 5:41 AM MDT 7:28 PM MDT
Nautical Twilight 5:12 AM MDT 7:57 PM MDT
Astronomical Twilight 4:42 AM MDT 8:27 PM MDT
Moon 7:01 AM MDT (8/26) 7:34 PM MDT (8/26)
Length of Visible Light 13h 46m
Length of Day
12h 56m
New Moon, 1% of the Moon is Illuminated
Aug 26
New Moon
Sep 2
First Quarter
Sep 8
Full
Sep 15
Last Quarter
Sep 24
New

Hourly Weather History & Observations

Time (MDT) Temp. Heat Index Dew Point Humidity Pressure Visibility Wind Dir Wind Speed Gust Speed Precip Events Conditions
12:15 AM 83.5 °F 84.1 °F 61.7 °F 48% 29.98 in 10.0 mi SSE 4.6 mph - N/A   Clear
12:35 AM 83.3 °F 84.1 °F 62.1 °F 49% 29.98 in 10.0 mi SSE 5.8 mph - N/A   Clear
12:55 AM 82.4 °F 83.2 °F 62.2 °F 50% 29.97 in 10.0 mi South 5.8 mph - N/A   Clear
1:15 AM 82.0 °F 83.1 °F 62.6 °F 52% 29.97 in 10.0 mi South 5.8 mph - N/A   Clear
1:35 AM 81.9 °F 83.1 °F 63.0 °F 53% 29.96 in 10.0 mi South 5.8 mph - N/A   Clear
1:55 AM 81.7 °F 83.0 °F 63.7 °F 54% 29.96 in 10.0 mi South 6.9 mph - N/A   Clear
2:15 AM 81.5 °F 83.1 °F 64.4 °F 56% 29.97 in 10.0 mi South 4.6 mph - N/A   Clear
2:35 AM 81.0 °F 82.6 °F 64.4 °F 57% 29.97 in 10.0 mi Calm Calm - N/A   Clear
2:55 AM 80.2 °F 82.0 °F 64.6 °F 59% 29.96 in 10.0 mi Calm Calm - N/A   Clear
3:15 AM 78.6 °F - 64.4 °F 62% 29.97 in 10.0 mi Calm Calm - N/A   Clear
3:35 AM 77.0 °F - 64.4 °F 65% 29.97 in 10.0 mi Calm Calm - N/A   Clear
3:55 AM 76.3 °F - 64.2 °F 66% 29.98 in 10.0 mi Calm Calm - N/A   Clear
4:15 AM 75.0 °F - 64.0 °F 69% 29.99 in 10.0 mi Calm Calm - N/A   Clear
4:35 AM 75.4 °F - 63.9 °F 67% 29.99 in 10.0 mi Calm Calm - N/A   Clear
4:55 AM 75.7 °F - 63.9 °F 66% 30.00 in 10.0 mi Calm Calm - N/A   Clear
5:15 AM 75.0 °F - 63.9 °F 68% 30.00 in 10.0 mi Calm Calm - N/A   Clear
5:35 AM 74.8 °F - 63.7 °F 68% 30.01 in 10.0 mi Calm Calm - N/A   Clear
5:55 AM 74.3 °F - 63.7 °F 69% 30.01 in 10.0 mi Calm Calm - N/A   Clear
6:15 AM 74.1 °F - 63.7 °F 70% 30.01 in 10.0 mi Calm Calm - N/A   Clear
6:35 AM 74.1 °F - 63.7 °F 70% 30.02 in 10.0 mi Calm Calm - N/A   Clear
6:55 AM 76.1 °F - 64.4 °F 67% 30.03 in 10.0 mi Calm Calm - N/A   Clear
7:15 AM 78.4 °F - 64.9 °F 63% 30.03 in 10.0 mi Calm Calm - N/A   Clear
7:35 AM 82.0 °F 83.1 °F 62.6 °F 52% 30.04 in 10.0 mi Calm Calm - N/A   Clear
7:55 AM 83.3 °F 83.9 °F 61.9 °F 48% 30.04 in 10.0 mi Calm Calm - N/A   Clear
8:15 AM 83.3 °F 84.1 °F 62.4 °F 49% 30.05 in 10.0 mi Calm Calm - N/A   Clear
8:35 AM 84.9 °F 85.4 °F 62.1 °F 46% 30.05 in 10.0 mi Calm Calm - N/A   Clear
8:55 AM 86.4 °F 86.8 °F 62.2 °F 44% 30.05 in 10.0 mi NW 3.5 mph - N/A   Clear
9:15 AM 87.1 °F 87.8 °F 62.8 °F 44% 30.05 in 10.0 mi NNW 4.6 mph - N/A   Clear
9:35 AM 86.2 °F 87.1 °F 63.0 °F 46% 30.06 in 10.0 mi NNW 3.5 mph - N/A   Clear
9:55 AM 87.8 °F 88.8 °F 63.7 °F 44% 30.06 in 10.0 mi Calm Calm - N/A   Clear
10:15 AM 89.6 °F 90.4 °F 63.3 °F 41% 30.06 in 10.0 mi NNE 4.6 mph - N/A   Clear
10:35 AM 91.0 °F 92.2 °F 63.5 °F 40% 30.06 in 10.0 mi Calm Calm - N/A   Clear
10:55 AM 90.7 °F 91.7 °F 63.5 °F 40% 30.06 in 10.0 mi Calm Calm - N/A   Clear
11:15 AM 92.7 °F 94.4 °F 64.0 °F 39% 30.05 in 10.0 mi North 4.6 mph - N/A   Clear
11:35 AM 94.5 °F 95.6 °F 62.6 °F 35% 30.05 in 10.0 mi East 6.9 mph - N/A   Clear
11:55 AM 93.2 °F 93.7 °F 61.9 °F 35% 30.04 in 10.0 mi North 5.8 mph - N/A   Clear
12:15 PM 96.1 °F 96.9 °F 62.1 °F 32% 30.02 in 10.0 mi North 4.6 mph - N/A   Clear
12:35 PM 94.3 °F 94.5 °F 61.2 °F 33% 30.01 in 10.0 mi East 4.6 mph - N/A   Clear
12:55 PM 95.5 °F 96.5 °F 62.1 °F 33% 30.01 in 10.0 mi North 5.8 mph - N/A   Scattered Clouds
1:15 PM 95.7 °F 95.9 °F 61.0 °F 31% 30.00 in 10.0 mi NNE 6.9 mph - N/A   Scattered Clouds
1:35 PM 94.3 °F 94.1 °F 60.4 °F 32% 29.99 in 10.0 mi NE 5.8 mph - N/A   Mostly Cloudy
1:55 PM 94.8 °F 94.9 °F 60.6 °F 32% 29.99 in 10.0 mi NE 3.5 mph - N/A   Scattered Clouds
2:15 PM 98.1 °F 98.6 °F 60.8 °F 29% 29.98 in 10.0 mi East 5.8 mph - N/A   Clear
2:35 PM 98.2 °F 99.4 °F 61.5 °F 30% 29.97 in 10.0 mi SSE 8.1 mph - N/A   Clear
2:55 PM 97.7 °F 98.5 °F 61.5 °F 30% 29.97 in 10.0 mi East 3.5 mph - N/A   Scattered Clouds
3:15 PM 97.9 °F 98.8 °F 61.5 °F 30% 29.96 in 10.0 mi SE 4.6 mph - N/A   Clear
3:35 PM 95.2 °F 95.9 °F 62.1 °F 33% 29.96 in 10.0 mi North 4.6 mph - N/A   Scattered Clouds
3:55 PM 93.0 °F 94.6 °F 63.7 °F 38% 29.95 in 10.0 mi NNW 8.1 mph - N/A Rain Light Rain
4:15 PM 82.2 °F 86.4 °F 70.7 °F 68% 29.96 in 2.5 mi ESE 9.2 mph - 0.07 in Rain Rain
4:35 PM 76.5 °F - 65.8 °F 70% 29.96 in 0.8 mi SE 13.8 mph 33.4 mph 0.38 in Rain , Thunderstorm Heavy Thunderstorms and Rain
4:55 PM 79.3 °F - 70.0 °F 73% 29.97 in 2.0 mi SE 3.5 mph 16.1 mph 0.60 in Rain , Thunderstorm Rain
5:15 PM 79.2 °F - 72.3 °F 79% 29.96 in 10.0 mi Calm Calm - N/A   Mostly Cloudy
5:35 PM 79.7 °F - 73.2 °F 80% 29.96 in 10.0 mi Calm Calm - N/A   Scattered Clouds
5:55 PM 81.0 °F 86.5 °F 74.7 °F 81% 29.96 in 10.0 mi Calm Calm - N/A   Scattered Clouds
6:15 PM 82.6 °F 89.4 °F 74.8 °F 77% 29.96 in 10.0 mi SE 3.5 mph - N/A   Scattered Clouds
6:35 PM 82.8 °F 88.2 °F 72.3 °F 71% 29.96 in 10.0 mi Calm Calm - N/A   Mostly Cloudy
6:55 PM 82.4 °F 87.4 °F 72.3 °F 71% 29.96 in 10.0 mi Calm Calm - N/A   Scattered Clouds
7:15 PM 81.5 °F 85.3 °F 70.3 °F 69% 29.96 in 10.0 mi ESE 3.5 mph - N/A   Clear
7:35 PM 81.5 °F 84.6 °F 68.9 °F 65% 29.97 in 10.0 mi ESE 3.5 mph - N/A   Clear
7:55 PM 80.6 °F 83.9 °F 69.8 °F 70% 29.98 in 10.0 mi Calm Calm - N/A   Clear
8:15 PM 79.7 °F - 70.3 °F 73% 29.98 in 10.0 mi SE 3.5 mph - N/A   Clear
8:35 PM 79.7 °F - 70.7 °F 74% 29.99 in 10.0 mi Calm Calm - N/A   Clear
8:55 PM 79.2 °F - 70.5 °F 75% 30.00 in 10.0 mi Calm Calm - N/A   Clear
9:15 PM 79.2 °F - 69.6 °F 72% 30.01 in 10.0 mi SSE 3.5 mph - N/A   Clear
9:35 PM 78.8 °F - 69.8 °F 74% 30.01 in 10.0 mi SSE 3.5 mph - N/A   Clear
9:55 PM 79.0 °F - 69.3 °F 72% 30.01 in 10.0 mi South 3.5 mph - N/A   Clear
10:15 PM 78.8 °F - 69.3 °F 72% 30.02 in 10.0 mi Calm Calm - 0.01 in   Clear
10:35 PM 78.1 °F - 70.2 °F 77% 30.02 in 10.0 mi Calm Calm - 0.01 in   Clear
11:15 PM 77.0 °F - 71.1 °F 82% 30.03 in 10.0 mi Calm Calm - N/A   Clear
11:35 PM 76.1 °F - 71.6 °F 86% 30.03 in 10.0 mi Calm Calm - N/A   Clear
11:55 PM 75.4 °F - 71.2 °F 87% 30.04 in 10.0 mi Calm Calm - N/A   Clear